CZ-6A DEB

Satellite information

Favourite Embed

Satellite Type and Status

DEBRISIN ORBIT

Key statistics

Satellite CZ-6A DEB at a glance.

Uptime

1082

Days in orbit

Revolutions

≈ 14.8

Per day

Orbit

SSO

Sun Synchronous Orbit

Inclination

98.6

Latest

Satellite identification and parameters

Extended collection of information and parameters for CZ-6A DEB.

Object identification

Identified? True

Debris? True

Object name: CZ-6A DEB

International designator: 2022-151QP

Object number (NORAD): 54902

Object ID (CCSDS): 54902

Country: PEOPLES REPUBLIC OF CHINA (PRC)

Current information (Y/N): Y

RCS size: SMALL

Orbital parameters

Period: 97.398 minutes

Inclination: 98.6213 deg

SMA: 7012.284 km

Apoapsis: 672.052 km

Periapsis: 596.245 km

RAAN: 351.5403 deg

Eccentricy: 0.0054053

Argument of periapsis: 266.8905 deg

Mean anomaly: 92.6118 deg

Mean motion: 14.7847341 rev/day

Mean motion (dot): 0.00028992 rev/day2

B* drag term: 0.003870905 1/REarth

Two-line elements (TLE)

Creation date: Oct. 26, 2025, 10:54 a.m.

Reference frame: TEME

Reference center: EARTH

Epoch: Oct. 26, 2025, 2:40 a.m. UTC

TLE line 0: 0 CZ-6A DEB

TLE line 1: 1 54902U 22151QP 25299.11149192 .00028992 00000-0 38709-2 0 9995

TLE line 2: 2 54902 98.6213 351.5403 0054053 266.8905 92.6118 14.78473410155956

Live tracking on map

Real-time ground track for satellite CZ-6A DEB.

In-orbit conjunctions

A list of the most updated potential collisions computed for object CZ-6A DEB.

Target Orbit TCA Probability of collision Miss distance Type
SL-8 R/B LEO 2025-07-15 20:08:25 0.0006941105 201.0 (m) ROCKET BODY
SL-14 R/B LEO 2025-01-05 19:36:58 0.0001476945 213.0 (m) ROCKET BODY
SL-8 R/B LEO 2024-11-13 05:42:03 0.0001239467 516.0 (m) ROCKET BODY
HILAT LEO 2024-08-12 11:52:28 0.0003287229 113.0 (m) PAYLOAD
COSMOS 540 LEO 2024-06-24 15:21:47 0.0002859981 979.0 (m) PAYLOAD

Associated space launch

Chinese satellite reported for atmospheric/ocean/environmental/spatial parameter research purposes, details TBD.

CZ-6A DEB was lifted into orbit during the mission ‘Long March 6A | Yunhai 3’, on board a Long March 6A space rocket.

The launch took place on Nov. 11, 2022, 10:52 p.m. from Launch Complex 9A.

For more information about the launch, click the button.

Launch to space Long March 6A | Yunhai 3
Long March 6A | Yunhai 3

Agency: N/A

Status: Launch Successful

Launch date: Nov. 11, 2022, 10:52 p.m. UTC

Rocket: Long March 6A

Launch pad: Launch Complex 9A

Location: Taiyuan Satellite Launch Center, People's Republic of China

...

Latest news about this satellite

There are no fresh news available about this satellite. Check back as we update our databases every day.


Newsletter sign-up

Weekly statistics, charts and insights to help you stay on top of the space industry.